ARG1650 SABE-SAZN

Flight info

Callsign ARG1650
Flight time N/A
Altitude 36000
Route PAL9XTORUL/13 TORUL UT654 BIXIM UT669 ROPON ROPON2Q
Aircraft E190/M-SDE3GILORVW/S

Departure

Time 2026-05-05 00:13
Airport Aeroparque Jorge Newbery (SABE)

Arrival

Time N/A
Airport Presidente Perón International Airport (SAZN)
Time Latitude Longitude Altitude Speed Heading
2026-05-05 00:10 -34.55374 -58.42374 26 ft 0 kts 301°
2026-05-05 00:11 -34.55368 -58.42388 26 ft 6 kts 291°
2026-05-05 00:11 -34.55357 -58.42444 26 ft 13 kts 276°
2026-05-05 00:12 -34.55370 -58.42504 26 ft 10 kts 218°
2026-05-05 00:12 -34.55528 -58.42287 26 ft 81 kts 123°
2026-05-05 00:12 -34.56030 -58.41387 32 ft 170 kts 124°
2026-05-05 00:12 -34.56498 -58.40533 329 ft 195 kts 123°
2026-05-05 00:13 -34.57309 -58.39106 1233 ft 219 kts 126°
2026-05-05 00:13 -34.58147 -58.37673 1719 ft 198 kts 124°
2026-05-05 00:13 -34.58891 -58.36326 1639 ft 186 kts 128°
2026-05-05 00:13 -34.60435 -58.35543 1820 ft 184 kts 192°
2026-05-05 00:14 -34.61499 -58.36361 2104 ft 185 kts 239°
2026-05-05 00:14 -34.61773 -58.37318 2298 ft 185 kts 267°
2026-05-05 00:14 -34.61520 -58.38753 2354 ft 171 kts 298°
2026-05-05 00:14 -34.60684 -58.39990 2459 ft 201 kts 321°
2026-05-05 00:15 -34.59392 -58.41624 3489 ft 226 kts 294°
2026-05-05 00:15 -34.59208 -58.42907 3828 ft 239 kts 262°
2026-05-05 00:15 -34.59877 -58.44764 4348 ft 244 kts 230°
2026-05-05 00:15 -34.61849 -58.45936 3969 ft 258 kts 181°
2026-05-05 00:16 -34.63763 -58.46179 4054 ft 274 kts 200°
2026-05-05 00:16 -34.64880 -58.46808 4407 ft 272 kts 204°
2026-05-05 00:16 -34.66673 -58.47656 4872 ft 277 kts 199°
2026-05-05 00:16 -34.68510 -58.48405 5324 ft 279 kts 198°
2026-05-05 00:17 -34.70970 -58.49342 5917 ft 282 kts 197°
2026-05-05 00:17 -34.72843 -58.50036 6364 ft 284 kts 197°
2026-05-05 00:17 -34.74726 -58.50727 6809 ft 286 kts 196°
2026-05-05 00:17 -34.76008 -58.51196 7111 ft 287 kts 196°
2026-05-05 00:18 -34.77934 -58.51899 7561 ft 289 kts 196°
2026-05-05 00:18 -34.79849 -58.52597 8006 ft 291 kts 196°
2026-05-05 00:18 -34.81747 -58.53426 8423 ft 293 kts 210°
2026-05-05 00:18 -34.83222 -58.55120 8898 ft 294 kts 230°
2026-05-05 00:19 -34.84488 -58.57058 9357 ft 297 kts 232°
2026-05-05 00:19 -34.85742 -58.59058 9805 ft 299 kts 232°
2026-05-05 00:19 -34.86982 -58.61075 10250 ft 301 kts 233°
2026-05-05 00:19 -34.88242 -58.63139 10702 ft 303 kts 233°
2026-05-05 00:20 -34.89908 -58.65880 11296 ft 305 kts 233°
2026-05-05 00:20 -34.90758 -58.67281 11597 ft 307 kts 233°
2026-05-05 00:20 -34.92025 -58.69371 12045 ft 309 kts 233°
2026-05-05 00:20 -34.93284 -58.71449 12486 ft 311 kts 233°
2026-05-05 00:21 -34.94570 -58.73573 12935 ft 313 kts 233°
2026-05-05 00:21 -34.95876 -58.75731 13387 ft 315 kts 233°
2026-05-05 00:21 -34.97173 -58.77876 13833 ft 317 kts 233°
2026-05-05 00:21 -34.98905 -58.80742 14425 ft 320 kts 233°
2026-05-05 00:22 -34.99789 -58.82206 14725 ft 321 kts 233°
2026-05-05 00:22 -35.01119 -58.84410 15174 ft 323 kts 233°
2026-05-05 00:22 -35.02453 -58.86622 15622 ft 326 kts 233°
2026-05-05 00:22 -35.03795 -58.88848 16069 ft 328 kts 233°
2026-05-05 00:23 -35.05137 -58.91076 16514 ft 330 kts 233°
2026-05-05 00:23 -35.06496 -58.93332 16961 ft 332 kts 233°
2026-05-05 00:23 -35.07861 -58.95601 17408 ft 335 kts 233°
2026-05-05 00:23 -35.09249 -58.97909 17859 ft 337 kts 233°
2026-05-05 00:24 -35.10625 -59.00200 18303 ft 339 kts 233°
2026-05-05 00:24 -35.12022 -59.02527 18751 ft 341 kts 233°
2026-05-05 00:24 -35.13425 -59.04865 19199 ft 344 kts 233°
2026-05-05 00:24 -35.14846 -59.07234 19648 ft 346 kts 233°
2026-05-05 00:25 -35.16742 -59.10398 20243 ft 349 kts 233°
2026-05-05 00:25 -35.17705 -59.12006 20544 ft 351 kts 233°
2026-05-05 00:25 -35.19149 -59.14420 20992 ft 353 kts 233°
2026-05-05 00:25 -35.20571 -59.16838 21434 ft 356 kts 234°
2026-05-05 00:26 -35.22014 -59.19338 21891 ft 358 kts 234°
2026-05-05 00:26 -35.23431 -59.21799 22336 ft 361 kts 234°
2026-05-05 00:26 -35.24878 -59.24314 22784 ft 363 kts 234°
2026-05-05 00:26 -35.26337 -59.26852 23232 ft 366 kts 234°
2026-05-05 00:27 -35.27807 -59.29411 23681 ft 369 kts 234°
2026-05-05 00:27 -35.29283 -59.31982 24129 ft 371 kts 234°
2026-05-05 00:27 -35.30752 -59.34544 24573 ft 374 kts 234°
2026-05-05 00:27 -35.32249 -59.37155 25030 ft 376 kts 234°
2026-05-05 00:28 -35.33760 -59.39793 25487 ft 379 kts 234°
2026-05-05 00:28 -35.35276 -59.42442 25935 ft 382 kts 234°
2026-05-05 00:28 -35.36802 -59.45077 26380 ft 385 kts 234°
2026-05-05 00:28 -35.38370 -59.47754 26829 ft 387 kts 234°
2026-05-05 00:29 -35.39927 -59.50410 27272 ft 390 kts 234°
2026-05-05 00:29 -35.41517 -59.53122 27721 ft 393 kts 234°
2026-05-05 00:29 -35.43116 -59.55854 28169 ft 396 kts 234°
2026-05-05 00:29 -35.44725 -59.58605 28618 ft 398 kts 234°
2026-05-05 00:30 -35.46336 -59.61361 29064 ft 401 kts 234°
2026-05-05 00:30 -35.48493 -59.65055 29656 ft 405 kts 234°
2026-05-05 00:30 -35.49596 -59.66945 29957 ft 407 kts 234°
2026-05-05 00:30 -35.51239 -59.69764 30402 ft 410 kts 234°
2026-05-05 00:31 -35.52902 -59.72618 30850 ft 413 kts 234°
2026-05-05 00:31 -35.54557 -59.75460 31286 ft 412 kts 234°
2026-05-05 00:31 -35.56224 -59.78327 31724 ft 411 kts 234°
2026-05-05 00:31 -35.57872 -59.81162 32158 ft 409 kts 234°
2026-05-05 00:32 -35.59508 -59.83979 32571 ft 408 kts 234°
2026-05-05 00:32 -35.61150 -59.86809 32984 ft 406 kts 234°
2026-05-05 00:32 -35.62782 -59.89624 33397 ft 403 kts 234°
2026-05-05 00:32 -35.64401 -59.92417 33807 ft 401 kts 234°
2026-05-05 00:33 -35.66003 -59.95185 34215 ft 398 kts 234°
2026-05-05 00:33 -35.67597 -59.97941 34624 ft 395 kts 234°
2026-05-05 00:33 -35.69161 -60.00647 35027 ft 391 kts 234°
2026-05-05 00:33 -35.70726 -60.03358 35435 ft 387 kts 234°
2026-05-05 00:34 -35.72272 -60.06036 35841 ft 383 kts 234°
2026-05-05 00:34 -35.73806 -60.08696 36247 ft 378 kts 234°
2026-05-05 00:34 -35.75300 -60.11289 36646 ft 373 kts 234°
2026-05-05 00:34 -35.76784 -60.13868 37048 ft 367 kts 234°
2026-05-05 00:35 -35.78235 -60.16389 37445 ft 360 kts 234°
2026-05-05 00:35 -35.79678 -60.18899 37847 ft 353 kts 234°
2026-05-05 00:35 -35.81069 -60.21320 38241 ft 345 kts 234°
2026-05-05 00:35 -35.82426 -60.23685 38632 ft 335 kts 234°
2026-05-05 00:36 -35.83754 -60.26000 39022 ft 325 kts 234°
2026-05-05 00:36 -35.85023 -60.28213 39401 ft 314 kts 234°
2026-05-05 00:36 -35.86255 -60.30363 39777 ft 301 kts 234°
2026-05-05 00:36 -35.87443 -60.32416 40058 ft 291 kts 232°
2026-05-05 00:37 -35.88741 -60.34364 39888 ft 299 kts 225°
2026-05-05 00:37 -35.90324 -60.36041 39466 ft 313 kts 211°
2026-05-05 00:37 -35.92320 -60.37162 39261 ft 319 kts 191°
2026-05-05 00:37 -35.94513 -60.37264 39286 ft 316 kts 165°
2026-05-05 00:38 -35.96466 -60.36103 39091 ft 321 kts 134°
2026-05-05 00:38 -35.97622 -60.33733 38515 ft 337 kts 98°
2026-05-05 00:38 -35.97323 -60.30880 37962 ft 349 kts 57°
2026-05-05 00:38 -35.95513 -60.29006 37751 ft 349 kts 12°
2026-05-05 00:39 -35.93172 -60.29326 37580 ft 348 kts 324°
2026-05-05 00:39 -35.91848 -60.31714 37083 ft 357 kts 273°
2026-05-05 00:39 -35.92605 -60.34555 36474 ft 367 kts 219°
2026-05-05 00:39 -35.94938 -60.35397 36177 ft 366 kts 162°
2026-05-05 00:40 -35.96751 -60.33432 36003 ft 362 kts 103°
2026-05-05 00:40 -35.96304 -60.30518 35551 ft 366 kts 43°
2026-05-05 00:40 -35.93975 -60.29602 34969 ft 373 kts 340°
2026-05-05 00:40 -35.92267 -60.31767 34652 ft 371 kts 276°
2026-05-05 00:41 -35.93112 -60.34574 34448 ft 367 kts 211°
2026-05-05 00:41 -35.95484 -60.34784 34014 ft 370 kts 145°
2026-05-05 00:41 -35.96588 -60.32081 33495 ft 374 kts 76°
2026-05-05 00:41 -35.94974 -60.29869 33217 ft 371 kts
2026-05-05 00:42 -35.92734 -60.30968 32976 ft 367 kts 297°
2026-05-05 00:42 -35.92837 -60.33907 32533 ft 370 kts 226°
2026-05-05 00:42 -35.95139 -60.34714 32102 ft 372 kts 154°
2026-05-05 00:42 -35.96441 -60.32238 31862 ft 368 kts 80°
2026-05-05 00:43 -35.94868 -60.30021 31570 ft 366 kts
2026-05-05 00:43 -35.92752 -60.31323 31136 ft 369 kts 290°
2026-05-05 00:43 -35.93258 -60.34177 30799 ft 368 kts 213°
2026-05-05 00:43 -35.95610 -60.34222 30570 ft 364 kts 136°
2026-05-05 00:44 -35.96151 -60.31440 30232 ft 365 kts 59°
2026-05-05 00:44 -35.94016 -60.30216 29844 ft 366 kts 339°
2026-05-05 00:44 -35.92677 -60.32544 29588 ft 364 kts 259°
2026-05-05 00:44 -35.94313 -60.34579 29323 ft 362 kts 178°
2026-05-05 00:45 -35.96169 -60.32912 28963 ft 363 kts 97°
2026-05-05 00:45 -35.95101 -60.30402 28658 ft 363 kts 15°
2026-05-05 00:45 -35.92953 -60.31396 28421 ft 360 kts 291°
2026-05-05 00:45 -35.93513 -60.34116 28110 ft 360 kts 207°
2026-05-05 00:46 -35.96107 -60.32729 27694 ft 360 kts 93°
2026-05-05 00:46 -35.95593 -60.30891 27539 ft 359 kts 36°
2026-05-05 00:46 -35.93335 -60.30927 27268 ft 358 kts 309°
2026-05-05 00:46 -35.93263 -60.33714 26948 ft 359 kts 221°
2026-05-05 00:47 -35.95494 -60.33899 26690 ft 358 kts 133°
2026-05-05 00:47 -35.95707 -60.31166 26444 ft 356 kts 45°
2026-05-05 00:47 -35.93488 -60.30882 26143 ft 357 kts 314°
2026-05-05 00:47 -35.93276 -60.33603 25876 ft 356 kts 224°
2026-05-05 00:48 -35.95490 -60.33801 25635 ft 355 kts 131°
2026-05-05 00:48 -35.95565 -60.31094 25356 ft 355 kts 39°
2026-05-05 00:48 -35.93353 -60.31152 25083 ft 355 kts 305°
2026-05-05 00:48 -35.93552 -60.33834 24848 ft 354 kts 211°
2026-05-05 00:49 -35.95708 -60.33365 24580 ft 354 kts 116°
2026-05-05 00:49 -35.95129 -60.30788 24315 ft 354 kts 20°
2026-05-05 00:49 -35.93115 -60.31774 24079 ft 353 kts 283°
2026-05-05 00:49 -35.94174 -60.34114 23820 ft 353 kts 185°
2026-05-05 00:50 -35.95876 -60.32516 23562 ft 353 kts 88°
2026-05-05 00:50 -35.94318 -60.30668 23324 ft 352 kts 347°
2026-05-05 00:50 -35.93138 -60.32875 23073 ft 352 kts 246°
2026-05-05 00:50 -35.95097 -60.33894 22819 ft 352 kts 146°
2026-05-05 00:51 -35.95512 -60.31310 22583 ft 351 kts 43°
2026-05-05 00:51 -35.93398 -60.31374 22336 ft 351 kts 301°
2026-05-05 00:51 -35.93949 -60.33905 22085 ft 351 kts 196°
2026-05-05 00:51 -35.95775 -60.32642 21853 ft 351 kts 92°
2026-05-05 00:52 -35.94295 -60.30783 21606 ft 350 kts 346°
2026-05-05 00:52 -35.93282 -60.33038 21363 ft 350 kts 239°
2026-05-05 00:52 -35.95313 -60.33588 21131 ft 350 kts 132°
2026-05-05 00:52 -35.95105 -60.31023 20886 ft 350 kts 23°
2026-05-05 00:53 -35.93224 -60.32115 20646 ft 350 kts 273°
2026-05-05 00:53 -35.94684 -60.33913 20412 ft 350 kts 163°
2026-05-05 00:53 -35.95540 -60.31615 20171 ft 350 kts 53°
2026-05-05 00:53 -35.93482 -60.31479 19934 ft 349 kts 300°
2026-05-05 00:54 -35.94186 -60.33854 19697 ft 349 kts 187°
2026-05-05 00:54 -35.95654 -60.32101 19454 ft 349 kts 72°
2026-05-05 00:54 -35.93779 -60.31176 19221 ft 349 kts 318°
2026-05-05 00:54 -35.93898 -60.33676 18981 ft 349 kts 202°
2026-05-05 00:55 -35.95645 -60.32428 18740 ft 348 kts 85°
2026-05-05 00:55 -35.93943 -60.31098 18504 ft 348 kts 327°
2026-05-05 00:55 -35.93814 -60.33569 18263 ft 348 kts 207°
2026-05-05 00:55 -35.95611 -60.32526 18027 ft 347 kts 89°
2026-05-05 00:56 -35.93968 -60.31123 17788 ft 347 kts 327°
2026-05-05 00:56 -35.93846 -60.33552 17550 ft 347 kts 207°
2026-05-05 00:56 -35.95588 -60.32395 17312 ft 346 kts 84°
2026-05-05 00:56 -35.93875 -60.31228 17075 ft 346 kts 321°
2026-05-05 00:57 -35.94044 -60.33643 16836 ft 346 kts 196°
2026-05-05 00:57 -35.95533 -60.32087 16599 ft 346 kts 70°
2026-05-05 00:57 -35.93643 -60.31521 16359 ft 345 kts 304°
2026-05-05 00:57 -35.94385 -60.33711 16125 ft 345 kts 178°
2026-05-05 00:58 -35.95347 -60.31644 15886 ft 345 kts 49°
2026-05-05 00:58 -35.93462 -60.31988 15652 ft 344 kts 281°
2026-05-05 00:58 -35.94882 -60.33578 15413 ft 344 kts 150°
2026-05-05 00:58 -35.94942 -60.31245 15178 ft 344 kts 20°
2026-05-05 00:59 -35.93471 -60.32716 14942 ft 343 kts 248°
2026-05-05 00:59 -35.95343 -60.33043 14704 ft 343 kts 114°
2026-05-05 00:59 -35.94244 -60.31165 14467 ft 343 kts 340°
2026-05-05 00:59 -35.93901 -60.33416 14234 ft 342 kts 207°
2026-05-05 01:00 -35.95444 -60.32127 13996 ft 342 kts 71°
2026-05-05 01:00 -35.93619 -60.31756 13761 ft 342 kts 294°
2026-05-05 01:00 -35.94733 -60.33557 13527 ft 342 kts 158°
2026-05-05 01:00 -35.94878 -60.31294 13289 ft 341 kts 18°
2026-05-05 01:01 -35.93591 -60.32895 13054 ft 341 kts 238°
2026-05-05 01:01 -35.95392 -60.32712 12820 ft 341 kts 99°
2026-05-05 01:01 -35.93903 -60.31439 12584 ft 340 kts 317°
2026-05-05 01:01 -35.94452 -60.33556 12348 ft 340 kts 174°
2026-05-05 01:02 -35.95052 -60.31480 12114 ft 340 kts 32°
2026-05-05 01:02 -35.93574 -60.32714 11879 ft 340 kts 247°
2026-05-05 01:02 -35.95343 -60.32756 11644 ft 339 kts 102°
2026-05-05 01:02 -35.93899 -60.31499 11408 ft 339 kts 315°
2026-05-05 01:03 -35.94569 -60.33506 11171 ft 339 kts 167°
2026-05-05 01:03 -35.94862 -60.31383 10936 ft 339 kts 19°
2026-05-05 01:03 -35.93726 -60.33010 10700 ft 338 kts 229°
2026-05-05 01:03 -35.95356 -60.32327 10466 ft 338 kts 80°
2026-05-05 01:04 -35.93667 -60.31926 10230 ft 338 kts 288°
2026-05-05 01:04 -35.94295 -60.31335 9758 ft 338 kts 342°
2026-05-05 01:04 -35.94277 -60.33428 9521 ft 338 kts 186°
2026-05-05 01:05 -35.94992 -60.31551 9286 ft 338 kts 31°
2026-05-05 01:05 -35.93719 -60.32887 9052 ft 338 kts 235°
2026-05-05 01:05 -35.95303 -60.32238 8811 ft 338 kts 75°
2026-05-05 01:05 -35.93651 -60.32158 8575 ft 338 kts 276°